SCP
0 0 0 0 0 0 0 0 0 0 0 0 0 0 -0 0 0 0 0 0 0 0 0 0 0 0 0 0 0 0 0 0 0 -0 -0 -0 0 0 0 0 0 0 0 0
0 0 0 0 0 0 0 0 0 0 0 0 0 0 0 0 0 0 0 0 0 0 0 0 0 0 0 -0 0 0 0 0 -0 -0 -0 0 0 0 0 0 0 0 -0 0
0 0 0 0 0 0 0 0 0 0 0 0 0 0 0 0 0 0 0 0 0 0 0 0 0 0 -0 0 0 0 0 -0 -0 -0 -0 0 0 -0 0 -0 0 0 0 0
0 -0 0 0 0 0 0 0 0 0 0 0 0 0 0 0 0 0 0 0 0 0 0 0 0 0 -0 -0 0 0 0 -0 -0 -0 -0 -0 0 0 -0 0 0 0 0 0
0 0 0 0 0 0 0 0 0 0 0 0 0 0 0 0 0 0 0 0 0 0 0 0 0 0 0 0 -0 -0 0 0 0 -0 -0 0 -0 0 0 0 -0 -0 -0 -0
0 0 0 0 0 0 0 0 0 0 0 0 0 0 0 0 0 0 0 0 0 0 0 0 0 0 -0 -0 0 0 0 0 0 -0 0 0 -0 -0 -0 0 0 0 -0 -0
0 0 0 0 0 0 0 0 0 0 0 0 0 0 0 0 0 0 0 0 0 0 0 -0 -0 0 0 -0 0 0 0 0 0 0 -0 -0 0 -0 0 0 -0 0 0 0
0 0 0 0 0 0 0 0 0 0 0 0 0 0 0 0 0 0 0 0 0 0 0 0 0 0 0 0 0 0 0 0 0 0 0 -0 -0 0 -0 0 0 0 0 0
0 0 0 0 0 0 0 0 0 0 0 0 0 0 0 0 0 0 0 0 0 0 0 0 0 0 0 0 0 0 0 0 0 0 0 0 0 0 0 -0 0 0 0 0
0 0 0 0 0 0 0 0 0 0 0 0 0 0 0 0 0 0 0 0 0 0 0 0 0 0 0 0 0 0 0 0 0 0 0 0 0 0 -0 -0 0 0 0 0
0 0 0 0 0 0 0 0 0 0 0 0 0 0 0 0 0 0 0 0 0 0 0 0 0 0 0 0 -0 -0 0 0 0 0 0 0 0 0 0 0 -0 0 0 0
0 0 0 0 0 0 0 0 0 0 0 0 0 -0 0 -0 0 0 0 0 0 0 0 0 0 0 0 0 -0 -0 0 0 0 0 0 0 0 0 0 0 0 0 0 0
0 0 0 0 0 0 0 0 0 0 0 0 0 0 0 0 0 0 0 0 0 0 0 0 0 0 0 0 -0 -0 -0 0 0 0 0 0 0 0 0 0 0 0 0 -0
0 0 0 0 0 0 0 0 0 0 0 0 0 0 0 0 0 0 0 0 0 0 0 0 0 0 0 0 0 0 0 0 0 0 0 -0 0 0 0 0 0 0 -0 -0
0 0 0 0 0 0 0 0 0 0 0 0 0 -0 0 0 0 0 0 0 0 0 0 0 0 0 0 0 -0 0 0 0 0 0 0 0 0 0 -0 0 -0 -0 -0 -0
0 0 0 0 0 0 0 0 0 -0 0 0 0 0 0 0 0 0 0 0 0 0 0 0 0 0 0 0 0 0 0 0 0 0 0 0 0 0 0 0 -0 -0 -0 -0
0 0 0 0 0 0 0 0 0 0 0 0 0 0 0 0 0 0 0 0 0 0 0 0 -0 0 0 0 0 -0 0 0 0 0 0 0 0 0 -0 0 0 0 0 0
0 0 0 0 0 0 0 0 0 0 0 0 0 0 0 0 0 0 0 0 0 0 0 0 0 0 0 0 0 -0 0 0 0 0 0 0 0 0 0 0 0 -0 0 0
0 0 0 0 0 0 0 0 0 0 0 0 0 0 0 0 0 0 0 0 0 0 0 0 0 -0 0 -0 -0 0 0 0 0 0 0 0 0 0 0 -0 0 0 -0 -0
0 0 0 0 0 0 0 0 0 0 0 0 0 -0 0 0 0 0 0 0 0 0 -0 0 0 0 -0 -0 0 0 0 0 0 0 0 0 0 0 0 0 0 0 0 0
0 0 0 0 0 0 0 0 0 0 0 0 0 -0 0 0 0 0 -0 -0 -0 0 -0 0 0 0 -0 -0 0 0 0 0 0 0 0 0 0 0 0 0 0 0 0 0
0 0 0 0 0 0 0 0 0 0 0 0 -0 0 -0 0 0 -0 -0 -0 -0 -0 -0 -0 0 0 -0 -0 0 0 -0 -0 0 0 0 0 0 0 0 0 0 0 0 0
0 0 0 0 0 0 0 0 -0 0 -0 0 0 0 0 0 -0 -0 -0 -0 0 -0 -0 0 0 0 0 0 0 -0 -0 -0 0 0 0 0 0 0 0 0 0 0 0 0
0 0 0 0 0 -0 0 -0 0 0 0 0 -0 -0 0 0 -0 -0 -0 -0 -0 0 -0 0 -0 0 0 0 -0 -0 0 0 0 0 0 0 0 -0 0 0 0 0 0 0
0 0 0 0 0 0 -0 0 -0 0 0 0 0 0 0 0 0 0 -0 -0 0 0 -0 -0 -0 0 0 -0 -0 -0 -0 0 0 0 0 0 0 -0 -0 -0 0 -0 0 0
0 0 0 0 0 0 0 0 0 0 0 -0 0 0 -0 -0 0 0 0 -0 0 -0 -0 -0 -0 0 0 0 0 -0 -0 -0 -0 -0 -0 -0 -0 -0 -0 -0 0 -0 -0 -0
0 0 0 0 -0 0 0 0 0 0 0 0 0 0 0 -0 0 0 0 0 -0 0 0 0 -0 -0 0 0 0 -0 -0 -0 -0 -0 -0 -0 -0 -0 -0 -0 0 -0 0 0
Wind_Speed_500mb
54 51 53 60 68 67 56 18 14 12 2 15 23 20 26 21 29 30 25 28 32 33 34 33 37 39 38 12 19 16 8 12 23 36 36 43 38 33 7 8 17 16 17 23
52 53 51 54 57 63 68 27 35 15 6 13 18 33 31 43 31 23 16 23 30 31 34 34 31 36 39 37 14 14 13 9 21 25 26 24 12 36 21 26 21 24 22 28
43 56 53 51 48 48 52 18 12 12 19 39 17 25 31 30 39 26 21 21 25 31 31 28 33 35 35 11 21 17 2 18 28 27 38 31 12 22 27 18 15 19 30 46
40 67 57 51 47 36 39 15 22 15 15 27 37 32 31 33 30 22 19 19 30 31 30 33 35 31 28 27 14 9 11 25 29 36 41 44 45 46 35 42 41 34 36 41
43 67 72 43 44 32 27 29 20 28 45 38 29 21 33 33 27 24 28 32 35 30 31 31 34 30 27 29 32 29 17 30 30 41 45 44 50 45 42 45 44 47 50 51
52 63 64 39 34 27 18 27 26 26 25 30 24 23 37 32 32 28 20 34 24 27 31 38 36 36 38 32 27 27 26 19 20 29 32 35 28 41 33 36 36 28 33 46
54 57 42 33 33 25 21 19 25 28 21 21 24 34 54 32 34 35 39 37 28 38 36 37 42 47 46 40 31 27 24 20 17 24 31 26 13 30 17 4 29 24 11 34
59 50 33 41 46 38 27 17 15 18 15 27 29 29 37 45 36 32 30 24 17 19 27 19 19 21 21 20 19 21 16 9 6 8 18 34 35 21 29 25 25 28 39 39
54 49 34 36 34 31 28 18 19 13 17 12 30 26 42 22 24 23 11 5 7 12 14 13 15 10 8 10 12 3 10 8 9 15 10 13 18 31 34 35 23 35 39 39
51 41 32 26 32 32 33 29 21 12 19 35 18 17 26 27 20 15 25 12 13 11 10 6 12 13 11 5 7 12 12 7 19 20 14 17 23 40 44 18 23 56 56 55
46 34 25 20 33 30 34 25 16 16 16 48 41 21 31 27 25 17 30 16 5 7 7 5 4 7 11 14 18 16 11 7 8 12 11 13 36 18 22 30 52 55 54 51
43 30 25 20 30 33 30 30 7 19 21 28 41 56 52 37 29 22 16 19 15 9 7 7 9 8 9 15 10 21 7 3 6 8 11 39 43 42 50 47 54 56 61 62
41 29 20 17 24 29 28 32 22 16 21 44 26 26 13 17 23 19 13 5 10 6 10 8 6 8 6 8 10 18 19 24 12 19 9 34 65 46 54 59 71 79 81 80
42 29 22 21 21 32 29 31 13 12 11 11 5 3 2 14 17 19 22 21 12 13 16 10 6 7 11 11 16 20 9 21 16 27 29 63 31 54 60 72 77 76 79 75
42 30 17 15 20 33 34 35 32 27 14 9 28 45 29 26 18 15 17 18 10 11 9 6 6 12 11 13 15 6 7 7 5 8 46 37 50 71 82 81 71 68 82 82
38 23 17 17 24 33 26 12 6 20 25 9 8 18 10 31 23 20 19 17 13 10 6 9 12 9 4 5 7 7 25 27 25 16 47 58 69 69 67 76 66 84 86 73
30 18 16 24 20 36 19 10 8 27 22 7 12 10 9 31 27 28 19 16 9 7 4 9 19 12 5 3 5 29 38 39 45 36 39 44 50 64 83 61 83 91 82 72
21 18 15 13 24 25 33 33 26 27 19 7 6 9 13 29 26 18 21 18 9 10 7 9 9 1 7 5 9 30 37 51 41 42 54 58 73 69 73 76 81 81 72 71
22 19 13 22 19 14 12 8 22 21 15 6 7 7 1 21 30 25 23 21 8 15 7 5 9 5 3 14 26 26 38 35 51 57 55 58 64 66 73 80 83 82 79 78
28 23 11 8 8 10 9 14 19 17 12 12 9 28 17 20 17 13 9 17 7 6 7 8 5 2 11 22 20 26 37 41 42 49 59 62 62 67 75 77 85 78 82 79
38 16 11 11 11 14 7 9 13 14 8 14 18 36 19 14 7 7 7 5 1 4 5 4 6 4 13 22 25 31 37 36 41 42 50 58 65 60 73 81 80 89 84 84
33 18 15 12 10 9 6 7 9 10 8 18 18 18 24 1 5 4 6 5 3 5 15 5 4 4 16 21 27 36 40 42 47 41 52 56 63 57 69 84 83 88 81 93
29 8 9 8 9 9 10 10 8 9 12 14 17 9 5 7 6 7 5 7 5 15 7 5 4 14 18 24 29 38 44 48 45 42 46 55 62 61 62 82 90 87 82 100
9 12 9 9 10 10 11 13 10 10 4 16 15 16 9 5 5 3 6 3 5 6 4 6 7 20 21 26 29 37 49 54 52 44 48 54 62 66 65 72 89 87 88 98
10 10 9 15 18 14 16 21 22 6 4 6 6 10 7 4 3 4 6 5 2 7 6 6 17 20 24 28 32 36 49 58 59 45 49 58 63 66 68 69 86 91 95 91
7 10 9 11 9 17 22 23 13 9 8 7 8 5 7 4 3 4 3 9 5 4 3 7 16 22 25 28 31 35 41 49 61 43 46 50 55 61 62 67 71 92 91 94
8 12 25 16 16 12 14 15 12 13 16 10 6 6 5 8 3 2 3 2 1 11 13 10 13 21 27 29 28 34 38 43 53 55 54 49 48 53 60 72 71 84 94 95
Wind_Direction_500mb
326 336 344 344 339 341 350 336 288 181 189 266 240 256 332 318 292 297 288 282 279 280 288 295 300 304 305 22 331 280 201 264 272 282 258 279 302 276 290 184 296 286 258 254
323 327 342 341 342 346 342 316 287 226 270 280 322 325 322 321 307 316 302 300 303 309 301 301 295 291 292 307 287 329 1 302 317 322 297 36 20 304 294 320 257 216 241 270
311 321 330 335 337 343 336 299 309 330 269 267 261 317 316 311 316 295 294 291 301 292 283 288 301 306 301 235 269 118 126 282 275 275 285 306 211 242 271 196 255 262 259 281
319 316 320 327 332 350 330 279 307 347 299 318 322 305 304 304 307 322 314 298 292 295 307 305 297 297 307 320 149 215 233 273 282 285 284 285 292 292 255 261 279 273 268 270
312 304 314 315 323 339 314 309 338 325 303 298 298 292 286 312 329 334 312 307 301 302 298 294 302 307 301 296 302 305 276 267 273 282 284 284 280 295 287 278 268 265 268 262
308 305 303 300 313 330 304 317 318 297 287 298 309 307 326 315 312 306 288 300 289 288 298 315 305 296 287 282 285 283 291 306 312 282 288 305 277 260 274 291 304 301 298 299
296 299 296 306 309 320 312 311 322 298 290 308 307 311 298 318 315 303 302 300 294 292 304 305 287 267 254 251 250 252 268 274 288 283 299 283 282 320 295 151 281 300 241 253
286 292 294 300 293 303 298 275 320 302 294 299 301 327 318 313 300 287 289 286 310 338 301 284 290 271 253 214 259 226 232 274 275 262 264 289 298 360 321 326 324 24 0 348
285 291 297 302 300 294 303 270 255 270 294 207 338 326 305 310 323 315 313 38 314 297 285 280 265 296 299 190 178 247 203 233 216 281 273 279 313 24 352 340 281 9 343 335
295 293 300 290 288 296 303 297 255 266 272 277 334 304 303 307 313 290 293 357 327 242 272 282 272 285 321 304 190 215 203 220 227 247 254 273 18 348 329 304 331 333 331 327
292 296 297 282 275 289 303 303 235 257 273 284 276 294 291 279 262 294 351 292 354 310 290 303 323 314 326 310 314 292 189 240 217 251 245 263 10 357 359 311 312 316 317 315
284 275 283 270 265 288 298 306 239 269 261 266 271 277 264 251 261 290 291 304 285 354 327 349 324 340 302 322 306 324 360 11 276 294 298 316 350 333 329 350 334 325 319 316
278 281 255 255 265 282 293 300 287 275 286 301 272 278 258 229 228 227 253 315 343 40 338 324 290 279 273 289 302 334 321 15 342 331 310 343 335 338 337 326 317 308 307 308
271 276 267 242 266 269 296 292 291 266 280 279 330 269 295 226 208 219 229 262 293 317 306 307 278 272 291 297 308 307 4 339 336 291 304 336 314 319 316 316 316 309 303 301
262 280 262 261 260 264 275 303 293 213 243 302 301 290 277 212 201 218 225 237 261 285 300 260 266 285 329 318 282 55 359 336 310 286 308 301 293 304 310 310 313 319 319 312
258 276 232 262 263 250 271 316 9 187 225 273 289 318 259 196 200 208 204 213 223 231 293 272 273 298 357 323 316 133 353 342 331 285 294 295 296 303 310 308 317 327 320 307
252 247 245 237 265 231 261 252 219 185 221 257 288 281 244 199 206 209 199 201 198 223 222 253 261 288 136 250 263 349 343 331 317 307 315 310 309 306 314 323 322 323 323 309
242 212 224 244 223 247 280 285 236 187 203 248 274 272 241 202 216 198 178 175 189 200 229 249 251 93 202 239 321 340 338 331 319 320 320 302 303 320 327 328 331 328 321 324
203 190 212 215 235 259 276 114 159 197 227 264 238 264 2 190 236 228 173 183 173 167 221 236 138 235 232 8 354 348 337 326 313 321 317 321 331 331 336 334 336 336 329 328
182 181 174 219 225 197 191 140 168 205 224 230 258 261 269 284 299 215 227 172 190 191 204 126 209 151 46 45 26 345 335 328 324 321 321 324 328 340 337 335 339 329 335 330
178 179 194 206 168 173 223 201 193 194 225 219 241 238 266 292 283 322 306 319 284 249 130 240 200 111 37 22 2 348 341 333 329 323 320 325 331 340 333 334 333 337 335 340
181 164 172 153 176 215 236 222 199 199 244 188 227 204 224 14 286 255 222 236 247 246 164 228 125 63 35 4 357 351 346 341 338 333 328 331 337 342 341 340 339 340 340 352
150 155 152 175 182 218 223 210 209 214 203 196 201 180 172 169 190 234 215 238 230 141 211 117 82 33 14 2 355 349 347 347 344 337 338 336 338 343 343 345 347 345 348 359
149 159 188 222 187 232 206 233 304 251 224 166 209 161 197 142 203 266 264 306 294 261 196 75 33 18 356 354 352 348 348 349 346 339 340 338 341 344 349 351 352 353 356 1
172 192 218 216 241 250 246 253 247 217 172 187 192 137 116 49 317 334 317 259 173 37 36 335 0 356 352 350 347 345 347 349 351 340 341 340 343 346 350 354 353 360 1 5
201 224 243 228 230 254 240 209 188 176 214 228 200 184 146 135 278 254 2 329 37 80 211 347 347 345 347 347 345 344 346 346 353 349 343 341 346 348 350 358 354 4 3 8
221 233 226 236 242 223 197 208 196 175 236 231 185 202 134 135 132 166 19 10 151 265 56 10 349 341 341 344 345 345 346 344 352 5 3 351 347 352 356 359 360 2 8 11
Wind_Speed_850mb
54 51 53 60 68 67 56 18 14 12 2 15 23 20 26 21 29 30 25 28 32 33 34 33 37 39 38 12 19 16 8 12 23 36 36 43 38 33 7 8 17 16 17 23
52 53 51 54 57 63 68 27 35 15 6 13 18 33 31 43 31 23 16 23 30 31 34 34 31 36 39 37 14 14 13 9 21 25 26 24 12 36 21 26 21 24 22 28
43 56 53 51 48 48 52 18 12 12 19 39 17 25 31 30 39 26 21 21 25 31 31 28 33 35 35 11 21 17 2 18 28 27 38 31 12 22 27 18 15 19 30 46
40 67 57 51 47 36 39 15 22 15 15 27 37 32 31 33 30 22 19 19 30 31 30 33 35 31 28 27 14 9 11 25 29 36 41 44 45 46 35 42 41 34 36 41
43 67 72 43 44 32 27 29 20 28 45 38 29 21 33 33 27 24 28 32 35 30 31 31 34 30 27 29 32 29 17 30 30 41 45 44 50 45 42 45 44 47 50 51
52 63 64 39 34 27 18 27 26 26 25 30 24 23 37 32 32 28 20 34 24 27 31 38 36 36 38 32 27 27 26 19 20 29 32 35 28 41 33 36 36 28 33 46
54 57 42 33 33 25 21 19 25 28 21 21 24 34 54 32 34 35 39 37 28 38 36 37 42 47 46 40 31 27 24 20 17 24 31 26 13 30 17 4 29 24 11 34
59 50 33 41 46 38 27 17 15 18 15 27 29 29 37 45 36 32 30 24 17 19 27 19 19 21 21 20 19 21 16 9 6 8 18 34 35 21 29 25 25 28 39 39
54 49 34 36 34 31 28 18 19 13 17 12 30 26 42 22 24 23 11 5 7 12 14 13 15 10 8 10 12 3 10 8 9 15 10 13 18 31 34 35 23 35 39 39
51 41 32 26 32 32 33 29 21 12 19 35 18 17 26 27 20 15 25 12 13 11 10 6 12 13 11 5 7 12 12 7 19 20 14 17 23 40 44 18 23 56 56 55
46 34 25 20 33 30 34 25 16 16 16 48 41 21 31 27 25 17 30 16 5 7 7 5 4 7 11 14 18 16 11 7 8 12 11 13 36 18 22 30 52 55 54 51
43 30 25 20 30 33 30 30 7 19 21 28 41 56 52 37 29 22 16 19 15 9 7 7 9 8 9 15 10 21 7 3 6 8 11 39 43 42 50 47 54 56 61 62
41 29 20 17 24 29 28 32 22 16 21 44 26 26 13 17 23 19 13 5 10 6 10 8 6 8 6 8 10 18 19 24 12 19 9 34 65 46 54 59 71 79 81 80
42 29 22 21 21 32 29 31 13 12 11 11 5 3 2 14 17 19 22 21 12 13 16 10 6 7 11 11 16 20 9 21 16 27 29 63 31 54 60 72 77 76 79 75
42 30 17 15 20 33 34 35 32 27 14 9 28 45 29 26 18 15 17 18 10 11 9 6 6 12 11 13 15 6 7 7 5 8 46 37 50 71 82 81 71 68 82 82
38 23 17 17 24 33 26 12 6 20 25 9 8 18 10 31 23 20 19 17 13 10 6 9 12 9 4 5 7 7 25 27 25 16 47 58 69 69 67 76 66 84 86 73
30 18 16 24 20 36 19 10 8 27 22 7 12 10 9 31 27 28 19 16 9 7 4 9 19 12 5 3 5 29 38 39 45 36 39 44 50 64 83 61 83 91 82 72
21 18 15 13 24 25 33 33 26 27 19 7 6 9 13 29 26 18 21 18 9 10 7 9 9 1 7 5 9 30 37 51 41 42 54 58 73 69 73 76 81 81 72 71
22 19 13 22 19 14 12 8 22 21 15 6 7 7 1 21 30 25 23 21 8 15 7 5 9 5 3 14 26 26 38 35 51 57 55 58 64 66 73 80 83 82 79 78
28 23 11 8 8 10 9 14 19 17 12 12 9 28 17 20 17 13 9 17 7 6 7 8 5 2 11 22 20 26 37 41 42 49 59 62 62 67 75 77 85 78 82 79
38 16 11 11 11 14 7 9 13 14 8 14 18 36 19 14 7 7 7 5 1 4 5 4 6 4 13 22 25 31 37 36 41 42 50 58 65 60 73 81 80 89 84 84
33 18 15 12 10 9 6 7 9 10 8 18 18 18 24 1 5 4 6 5 3 5 15 5 4 4 16 21 27 36 40 42 47 41 52 56 63 57 69 84 83 88 81 93
29 8 9 8 9 9 10 10 8 9 12 14 17 9 5 7 6 7 5 7 5 15 7 5 4 14 18 24 29 38 44 48 45 42 46 55 62 61 62 82 90 87 82 100
9 12 9 9 10 10 11 13 10 10 4 16 15 16 9 5 5 3 6 3 5 6 4 6 7 20 21 26 29 37 49 54 52 44 48 54 62 66 65 72 89 87 88 98
10 10 9 15 18 14 16 21 22 6 4 6 6 10 7 4 3 4 6 5 2 7 6 6 17 20 24 28 32 36 49 58 59 45 49 58 63 66 68 69 86 91 95 91
7 10 9 11 9 17 22 23 13 9 8 7 8 5 7 4 3 4 3 9 5 4 3 7 16 22 25 28 31 35 41 49 61 43 46 50 55 61 62 67 71 92 91 94
8 12 25 16 16 12 14 15 12 13 16 10 6 6 5 8 3 2 3 2 1 11 13 10 13 21 27 29 28 34 38 43 53 55 54 49 48 53 60 72 71 84 94 95
Wind_Direction_850mb
326 336 344 344 339 341 350 336 288 181 189 266 240 256 332 318 292 297 288 282 279 280 288 295 300 304 305 22 331 280 201 264 272 282 258 279 302 276 290 184 296 286 258 254
323 327 342 341 342 346 342 316 287 226 270 280 322 325 322 321 307 316 302 300 303 309 301 301 295 291 292 307 287 329 1 302 317 322 297 36 20 304 294 320 257 216 241 270
311 321 330 335 337 343 336 299 309 330 269 267 261 317 316 311 316 295 294 291 301 292 283 288 301 306 301 235 269 118 126 282 275 275 285 306 211 242 271 196 255 262 259 281
319 316 320 327 332 350 330 279 307 347 299 318 322 305 304 304 307 322 314 298 292 295 307 305 297 297 307 320 149 215 233 273 282 285 284 285 292 292 255 261 279 273 268 270
312 304 314 315 323 339 314 309 338 325 303 298 298 292 286 312 329 334 312 307 301 302 298 294 302 307 301 296 302 305 276 267 273 282 284 284 280 295 287 278 268 265 268 262
308 305 303 300 313 330 304 317 318 297 287 298 309 307 326 315 312 306 288 300 289 288 298 315 305 296 287 282 285 283 291 306 312 282 288 305 277 260 274 291 304 301 298 299
296 299 296 306 309 320 312 311 322 298 290 308 307 311 298 318 315 303 302 300 294 292 304 305 287 267 254 251 250 252 268 274 288 283 299 283 282 320 295 151 281 300 241 253
286 292 294 300 293 303 298 275 320 302 294 299 301 327 318 313 300 287 289 286 310 338 301 284 290 271 253 214 259 226 232 274 275 262 264 289 298 360 321 326 324 24 0 348
285 291 297 302 300 294 303 270 255 270 294 207 338 326 305 310 323 315 313 38 314 297 285 280 265 296 299 190 178 247 203 233 216 281 273 279 313 24 352 340 281 9 343 335
295 293 300 290 288 296 303 297 255 266 272 277 334 304 303 307 313 290 293 357 327 242 272 282 272 285 321 304 190 215 203 220 227 247 254 273 18 348 329 304 331 333 331 327
292 296 297 282 275 289 303 303 235 257 273 284 276 294 291 279 262 294 351 292 354 310 290 303 323 314 326 310 314 292 189 240 217 251 245 263 10 357 359 311 312 316 317 315
284 275 283 270 265 288 298 306 239 269 261 266 271 277 264 251 261 290 291 304 285 354 327 349 324 340 302 322 306 324 360 11 276 294 298 316 350 333 329 350 334 325 319 316
278 281 255 255 265 282 293 300 287 275 286 301 272 278 258 229 228 227 253 315 343 40 338 324 290 279 273 289 302 334 321 15 342 331 310 343 335 338 337 326 317 308 307 308
271 276 267 242 266 269 296 292 291 266 280 279 330 269 295 226 208 219 229 262 293 317 306 307 278 272 291 297 308 307 4 339 336 291 304 336 314 319 316 316 316 309 303 301
262 280 262 261 260 264 275 303 293 213 243 302 301 290 277 212 201 218 225 237 261 285 300 260 266 285 329 318 282 55 359 336 310 286 308 301 293 304 310 310 313 319 319 312
258 276 232 262 263 250 271 316 9 187 225 273 289 318 259 196 200 208 204 213 223 231 293 272 273 298 357 323 316 133 353 342 331 285 294 295 296 303 310 308 317 327 320 307
252 247 245 237 265 231 261 252 219 185 221 257 288 281 244 199 206 209 199 201 198 223 222 253 261 288 136 250 263 349 343 331 317 307 315 310 309 306 314 323 322 323 323 309
242 212 224 244 223 247 280 285 236 187 203 248 274 272 241 202 216 198 178 175 189 200 229 249 251 93 202 239 321 340 338 331 319 320 320 302 303 320 327 328 331 328 321 324
203 190 212 215 235 259 276 114 159 197 227 264 238 264 2 190 236 228 173 183 173 167 221 236 138 235 232 8 354 348 337 326 313 321 317 321 331 331 336 334 336 336 329 328
182 181 174 219 225 197 191 140 168 205 224 230 258 261 269 284 299 215 227 172 190 191 204 126 209 151 46 45 26 345 335 328 324 321 321 324 328 340 337 335 339 329 335 330
178 179 194 206 168 173 223 201 193 194 225 219 241 238 266 292 283 322 306 319 284 249 130 240 200 111 37 22 2 348 341 333 329 323 320 325 331 340 333 334 333 337 335 340
181 164 172 153 176 215 236 222 199 199 244 188 227 204 224 14 286 255 222 236 247 246 164 228 125 63 35 4 357 351 346 341 338 333 328 331 337 342 341 340 339 340 340 352
150 155 152 175 182 218 223 210 209 214 203 196 201 180 172 169 190 234 215 238 230 141 211 117 82 33 14 2 355 349 347 347 344 337 338 336 338 343 343 345 347 345 348 359
149 159 188 222 187 232 206 233 304 251 224 166 209 161 197 142 203 266 264 306 294 261 196 75 33 18 356 354 352 348 348 349 346 339 340 338 341 344 349 351 352 353 356 1
172 192 218 216 241 250 246 253 247 217 172 187 192 137 116 49 317 334 317 259 173 37 36 335 0 356 352 350 347 345 347 349 351 340 341 340 343 346 350 354 353 360 1 5
201 224 243 228 230 254 240 209 188 176 214 228 200 184 146 135 278 254 2 329 37 80 211 347 347 345 347 347 345 344 346 346 353 349 343 341 346 348 350 358 354 4 3 8
221 233 226 236 242 223 197 208 196 175 236 231 185 202 134 135 132 166 19 10 151 265 56 10 349 341 341 344 345 345 346 344 352 5 3 351 347 352 356 359 360 2 8 11